sat.trackr.live / text

‹ back to catalog

CBERS 4A

NORAD 44883 · 2019-093E

PAYLOAD ACTIVE UNKNOWN

§ Identity

Operator
Country
CHBZ
Launch date
2019-12-20
Launch site
TAISC
Launch vehicle
Mass (kg)
RCS (m²)

External: N2YO · Heavens-Above · Gunter

§ Orbital elements

Epoch: 2026-09-20T04:30:59.255712Z

Period
97.20 min
Inclination
98.0103°
Eccentricity
0.0001605
Mean motion
14.81532474 rev/d
Perigee alt
623.4 km
Apogee alt
625.6 km
Semi-major
7,002.6 km
B*
3.4612e-5
RAAN
330.6712°
Arg perigee
45.6259°
Mean anomaly
314.5085°
Rev number
36,514

§ Raw data

CBERS 4A1 44883U 19093E   26263.18818583  .00000218  00000+0  34612-4 0  99902 44883  98.0103 330.6712 0001605  45.6259 314.5085 14.81532474365149

JSON: /api/v1/satellites/44883 · /tle

For live sub-satellite position, see the globe view (requires WebGL).

§ Visibility from observer

Set your observer location to see the next 7 days of passes ≥ 10°. The values pass through the URL so the page stays shareable.

No JS? Fill the form by hand. The geolocation button needs JavaScript.

§ Radio — SatNOGS DB

ModeDescriptionDownlinkUplink
FM S-band telemetry 2.204 GHz

1 transmitter · refreshed weekly from db.satnogs.org